User: anonymous   Login
Location: Unspecified
(0.0000°N, 0.0000°E)
Time: 09:17:05
(UTC+00:00)
Language:

Polar BEAR P87-1 - Orbit

View from above orbital plane
View from above orbital plane
View from above satellite
View from above satellite

Ground track
Ground track

The orbit data is extracted from the following two-line orbital elements,

1 17070U 86088A   17267.14347112 +.00000057 +00000-0 +47247-4 0  9991
2 17070 089.5362 322.2279 0039374 165.8825 222.2515 13.74737818547350
Epoch (UTC): 24 September 2017 03:26:35
Eccentricity: 0.0039374
inclination: 89.5362°
perigee height: 953 km
apogee height: 1011 km
right ascension of ascending node: 322.2279°
argument of perigee: 165.8825°
revolutions per day: 13.74737818
mean anomaly at epoch: 222.2515°
orbit number at epoch: 54735

The dashed part of the orbit path shows where the satellite is in the earth's shadow,  

DLR